Retour au catalogue

CZ-4B DEB

ActifSSO
NORAD 44593·DEBRIS·🇨🇳 China

Lancé Oct 25, 2008 depuis Taiyuan Satellite Launch Center

Loading…

Prochains Passages (prochaines 24 heures)

TLE

FraisSource: Space-Track

Époque: Sep 12, 2026, 07:52 UTC

1 44593U 08053M   26255.32798845  .00001117  00000-0  74801-4 0  9991
2 44593  97.8129 285.1710 0017917 334.6606  25.3741 15.08951163700794

Suivez CZ-4B DEB en temps réel avec AllMySat

Download on the App Store